Year,Month,Day,Hour,Minute,Value (Times are PST for windgust in km/hr)
2018,04,27,00,00,3.20
2018,04,27,00,01,3.20
2018,04,27,00,02,1.60
2018,04,27,00,03,3.20
2018,04,27,00,05,3.20
2018,04,27,00,06,3.20
2018,04,27,00,08,3.20
2018,04,27,00,09,1.60
2018,04,27,00,10,3.20
2018,04,27,00,11,3.20
2018,04,27,00,12,1.60
2018,04,27,00,14,4.80
2018,04,27,00,15,1.60
2018,04,27,00,16,1.60
2018,04,27,00,17,3.20
2018,04,27,00,18,1.60
2018,04,27,00,22,3.20
2018,04,27,00,23,3.20
2018,04,27,00,25,1.60
2018,04,27,00,30,1.60
2018,04,27,00,33,1.60
2018,04,27,00,44,3.20
2018,04,27,00,45,1.60
2018,04,27,00,59,1.60
2018,04,27,01,04,1.60
2018,04,27,01,05,1.60
2018,04,27,01,07,1.60
2018,04,27,01,12,1.60
2018,04,27,01,17,4.80
2018,04,27,01,18,4.80
2018,04,27,01,20,1.60
2018,04,27,01,21,1.60
2018,04,27,01,22,3.20
2018,04,27,01,23,3.20
2018,04,27,01,25,1.60
2018,04,27,01,29,3.20
2018,04,27,01,30,1.60
2018,04,27,01,31,3.20
2018,04,27,01,32,4.80
2018,04,27,01,33,4.80
2018,04,27,01,34,4.80
2018,04,27,01,35,4.80
2018,04,27,01,36,4.80
2018,04,27,01,37,3.20
2018,04,27,01,38,4.80
2018,04,27,01,39,4.80
2018,04,27,01,40,4.80
2018,04,27,01,41,6.40
2018,04,27,01,42,6.40
2018,04,27,01,43,6.40
2018,04,27,01,44,6.40
2018,04,27,01,45,6.40
2018,04,27,01,46,6.40
2018,04,27,01,47,4.80
2018,04,27,01,48,6.40
2018,04,27,01,49,4.80
2018,04,27,01,51,1.60
2018,04,27,01,52,3.20
2018,04,27,01,53,1.60
2018,04,27,01,58,1.60
2018,04,27,02,01,1.60
2018,04,27,02,09,1.60
2018,04,27,02,10,3.20
2018,04,27,02,11,4.80
2018,04,27,02,12,6.40
2018,04,27,02,13,4.80
2018,04,27,02,14,3.20
2018,04,27,02,15,3.20
2018,04,27,02,17,1.60
2018,04,27,02,18,3.20
2018,04,27,02,20,3.20
2018,04,27,02,21,1.60
2018,04,27,02,22,4.80
2018,04,27,02,23,3.20
2018,04,27,02,24,1.60
2018,04,27,02,25,1.60
2018,04,27,02,26,4.80
2018,04,27,02,27,3.20
2018,04,27,02,28,3.20
2018,04,27,02,29,4.80
2018,04,27,02,30,4.80
2018,04,27,02,31,3.20
2018,04,27,02,32,3.20
2018,04,27,02,33,1.60
2018,04,27,02,34,4.80
2018,04,27,02,35,4.80
2018,04,27,02,36,3.20
2018,04,27,02,37,1.60
2018,04,27,02,38,1.60
2018,04,27,02,40,3.20
2018,04,27,02,43,1.60
2018,04,27,02,48,1.60
2018,04,27,02,49,3.20
2018,04,27,02,50,4.80
2018,04,27,02,51,3.20
2018,04,27,02,52,4.80
2018,04,27,02,53,4.80
2018,04,27,02,54,4.80
2018,04,27,02,55,4.80
2018,04,27,02,56,4.80
2018,04,27,02,57,4.80
2018,04,27,02,58,1.60
2018,04,27,02,59,1.60
2018,04,27,03,02,1.60
2018,04,27,03,13,3.20
2018,04,27,03,14,3.20
2018,04,27,03,15,3.20
2018,04,27,03,16,3.20
2018,04,27,03,17,3.20
2018,04,27,03,18,3.20
2018,04,27,03,19,3.20
2018,04,27,03,21,1.60
2018,04,27,03,22,1.60
2018,04,27,03,31,3.20
2018,04,27,03,32,3.20
2018,04,27,03,33,1.60
2018,04,27,03,34,3.20
2018,04,27,03,35,4.80
2018,04,27,03,36,3.20
2018,04,27,03,39,1.60
2018,04,27,03,44,1.60
2018,04,27,03,45,4.80
2018,04,27,03,46,3.20
2018,04,27,03,47,4.80
2018,04,27,03,48,3.20
2018,04,27,03,49,4.80
2018,04,27,03,50,3.20
2018,04,27,03,51,3.20
2018,04,27,03,52,3.20
2018,04,27,03,53,4.80
2018,04,27,03,54,3.20
2018,04,27,03,55,3.20
2018,04,27,03,56,3.20
2018,04,27,03,57,3.20
2018,04,27,03,58,4.80
2018,04,27,03,59,3.20
2018,04,27,04,00,1.60
2018,04,27,04,01,3.20
2018,04,27,04,02,3.20
2018,04,27,04,03,3.20
2018,04,27,04,04,4.80
2018,04,27,04,05,3.20
2018,04,27,04,06,3.20
2018,04,27,04,11,1.60
2018,04,27,04,14,3.20
2018,04,27,04,15,3.20
2018,04,27,04,16,3.20
2018,04,27,04,17,3.20
2018,04,27,04,18,3.20
2018,04,27,04,19,3.20
2018,04,27,04,20,3.20
2018,04,27,04,21,3.20
2018,04,27,04,22,4.80
2018,04,27,04,23,4.80
2018,04,27,04,24,4.80
2018,04,27,04,25,4.80
2018,04,27,04,26,4.80
2018,04,27,04,27,4.80
2018,04,27,04,28,4.80
2018,04,27,04,29,4.80
2018,04,27,04,30,4.80
2018,04,27,04,31,3.20
2018,04,27,04,32,4.80
2018,04,27,04,33,4.80
2018,04,27,04,34,4.80
2018,04,27,04,35,3.20
2018,04,27,04,36,4.80
2018,04,27,04,37,4.80
2018,04,27,04,38,3.20
2018,04,27,04,39,3.20
2018,04,27,04,40,4.80
2018,04,27,04,41,3.20
2018,04,27,04,43,3.20
2018,04,27,04,46,1.60
2018,04,27,04,54,1.60
2018,04,27,04,55,3.20
2018,04,27,04,56,1.60
2018,04,27,04,58,1.60
2018,04,27,05,03,1.60
2018,04,27,05,06,1.60
2018,04,27,05,08,1.60
2018,04,27,05,10,1.60
2018,04,27,05,11,1.60
2018,04,27,05,12,3.20
2018,04,27,05,13,1.60
2018,04,27,05,15,1.60
2018,04,27,05,16,4.80
2018,04,27,05,17,3.20
2018,04,27,05,18,3.20
2018,04,27,05,19,3.20
2018,04,27,05,20,3.20
2018,04,27,05,24,1.60
2018,04,27,05,30,1.60
2018,04,27,05,31,3.20
2018,04,27,05,32,4.80
2018,04,27,05,33,4.80
2018,04,27,05,34,3.20
2018,04,27,05,35,3.20
2018,04,27,05,36,3.20
2018,04,27,05,37,3.20
2018,04,27,05,49,4.80
2018,04,27,05,50,3.20
2018,04,27,05,53,1.60
2018,04,27,05,54,3.20
2018,04,27,05,55,3.20
2018,04,27,05,56,1.60
2018,04,27,06,00,1.60
2018,04,27,06,01,1.60
2018,04,27,06,02,1.60
2018,04,27,06,03,1.60
2018,04,27,06,05,1.60
2018,04,27,06,06,3.20
2018,04,27,06,07,1.60
2018,04,27,06,10,1.60
2018,04,27,06,15,3.20
2018,04,27,06,16,1.60
2018,04,27,06,18,1.60
2018,04,27,06,20,1.60
2018,04,27,06,21,3.20
2018,04,27,06,22,3.20
2018,04,27,06,23,3.20
2018,04,27,06,24,3.20
2018,04,27,06,25,4.80
2018,04,27,06,26,3.20
2018,04,27,06,27,3.20
2018,04,27,06,28,3.20
2018,04,27,06,29,3.20
2018,04,27,06,30,8.10
2018,04,27,06,31,6.40
2018,04,27,06,32,4.80
2018,04,27,06,37,3.20
2018,04,27,06,38,3.20
2018,04,27,06,39,4.80
2018,04,27,06,40,4.80
2018,04,27,06,41,1.60
2018,04,27,06,42,1.60
2018,04,27,06,43,1.60
2018,04,27,06,44,6.40
2018,04,27,06,45,4.80
2018,04,27,06,46,3.20
2018,04,27,06,47,4.80
2018,04,27,06,48,3.20
2018,04,27,06,49,4.80
2018,04,27,06,50,4.80
2018,04,27,06,51,3.20
2018,04,27,06,52,3.20
2018,04,27,06,53,1.60
2018,04,27,06,54,1.60
2018,04,27,06,55,3.20
2018,04,27,06,56,4.80
2018,04,27,06,57,3.20
2018,04,27,06,58,4.80
2018,04,27,06,59,4.80
2018,04,27,07,00,3.20
2018,04,27,07,01,1.60
2018,04,27,07,02,1.60
2018,04,27,07,03,3.20
2018,04,27,07,04,3.20
2018,04,27,07,05,1.60
2018,04,27,07,06,1.60
2018,04,27,07,07,4.80
2018,04,27,07,08,4.80
2018,04,27,07,09,4.80
2018,04,27,07,10,4.80
2018,04,27,07,11,3.20
2018,04,27,07,17,1.60
2018,04,27,07,18,3.20
2018,04,27,07,19,3.20
2018,04,27,07,20,3.20
2018,04,27,07,21,3.20
2018,04,27,07,28,1.60
2018,04,27,07,33,3.20
2018,04,27,07,34,3.20
2018,04,27,07,40,1.60
2018,04,27,07,44,1.60
2018,04,27,07,45,1.60
2018,04,27,07,51,1.60
2018,04,27,08,08,4.80
2018,04,27,08,09,4.80
2018,04,27,08,10,4.80
2018,04,27,08,11,6.40
2018,04,27,08,12,3.20
2018,04,27,08,13,1.60
2018,04,27,08,14,1.60
2018,04,27,08,20,1.60
2018,04,27,08,21,4.80
2018,04,27,08,22,4.80
2018,04,27,08,23,1.60
2018,04,27,08,24,1.60
2018,04,27,08,25,3.20
2018,04,27,08,26,3.20
2018,04,27,08,27,1.60
2018,04,27,08,28,3.20
2018,04,27,08,29,4.80
2018,04,27,08,30,3.20
2018,04,27,08,31,3.20
2018,04,27,08,32,1.60
2018,04,27,08,33,1.60
2018,04,27,08,34,1.60
2018,04,27,08,35,3.20
2018,04,27,08,37,1.60
2018,04,27,08,38,3.20
2018,04,27,08,39,3.20
2018,04,27,08,40,6.40
2018,04,27,08,41,6.40
2018,04,27,08,42,6.40
2018,04,27,08,43,6.40
2018,04,27,08,44,6.40
2018,04,27,08,45,4.80
2018,04,27,08,46,8.10
2018,04,27,08,47,6.40
2018,04,27,08,48,6.40
2018,04,27,08,49,6.40
2018,04,27,08,50,8.10
2018,04,27,08,51,8.10
2018,04,27,08,52,6.40
2018,04,27,08,54,1.60
2018,04,27,08,55,8.10
2018,04,27,08,56,6.40
2018,04,27,08,57,6.40
2018,04,27,08,58,1.60
2018,04,27,08,59,3.20
2018,04,27,09,00,3.20
2018,04,27,09,01,8.10
2018,04,27,09,02,3.20
2018,04,27,09,03,1.60
2018,04,27,09,04,4.80
2018,04,27,09,05,6.40
2018,04,27,09,07,1.60
2018,04,27,09,08,1.60
2018,04,27,09,09,3.20
2018,04,27,09,10,6.40
2018,04,27,09,11,4.80
2018,04,27,09,12,4.80
2018,04,27,09,13,3.20
2018,04,27,09,14,1.60
2018,04,27,09,15,3.20
2018,04,27,09,16,1.60
2018,04,27,09,17,3.20
2018,04,27,09,18,6.40
2018,04,27,09,19,6.40
2018,04,27,09,20,6.40
2018,04,27,09,21,4.80
2018,04,27,09,22,3.20
2018,04,27,09,23,6.40
2018,04,27,09,24,6.40
2018,04,27,09,25,4.80
2018,04,27,09,26,6.40
2018,04,27,09,27,4.80
2018,04,27,09,28,4.80
2018,04,27,09,29,8.10
2018,04,27,09,30,4.80
2018,04,27,09,31,1.60
2018,04,27,09,32,1.60
2018,04,27,09,33,1.60
2018,04,27,09,34,8.10
2018,04,27,09,35,6.40
2018,04,27,09,36,3.20
2018,04,27,09,37,1.60
2018,04,27,09,38,6.40
2018,04,27,09,39,6.40
2018,04,27,09,40,1.60
2018,04,27,09,41,1.60
2018,04,27,09,42,8.10
2018,04,27,09,43,9.60
2018,04,27,09,44,8.10
2018,04,27,09,45,6.40
2018,04,27,09,46,4.80
2018,04,27,09,47,8.10
2018,04,27,09,48,3.20
2018,04,27,09,49,3.20
2018,04,27,09,50,4.80
2018,04,27,09,51,8.10
2018,04,27,09,52,6.40
2018,04,27,09,53,6.40
2018,04,27,09,54,11.30
2018,04,27,09,55,6.40
2018,04,27,09,56,6.40
2018,04,27,09,57,3.20
2018,04,27,09,58,3.20
2018,04,27,09,59,4.80
2018,04,27,10,00,1.60
2018,04,27,10,01,1.60
2018,04,27,10,02,3.20
2018,04,27,10,03,3.20
2018,04,27,10,04,1.60
2018,04,27,10,05,4.80
2018,04,27,10,06,6.40
2018,04,27,10,07,3.20
2018,04,27,10,08,8.10
2018,04,27,10,09,6.40
2018,04,27,10,10,8.10
2018,04,27,10,11,8.10
2018,04,27,10,12,6.40
2018,04,27,10,13,3.20
2018,04,27,10,14,6.40
2018,04,27,10,15,6.40
2018,04,27,10,16,4.80
2018,04,27,10,17,4.80
2018,04,27,10,18,4.80
2018,04,27,10,19,3.20
2018,04,27,10,20,6.40
2018,04,27,10,21,4.80
2018,04,27,10,22,3.20
2018,04,27,10,23,3.20
2018,04,27,10,24,3.20
2018,04,27,10,25,1.60
2018,04,27,10,26,1.60
2018,04,27,10,27,3.20
2018,04,27,10,28,3.20
2018,04,27,10,29,3.20
2018,04,27,10,30,4.80
2018,04,27,10,31,3.20
2018,04,27,10,32,8.10
2018,04,27,10,33,1.60
2018,04,27,10,34,6.40
2018,04,27,10,35,4.80
2018,04,27,10,36,4.80
2018,04,27,10,37,6.40
2018,04,27,10,38,4.80
2018,04,27,10,39,6.40
2018,04,27,10,40,4.80
2018,04,27,10,41,4.80
2018,04,27,10,42,6.40
2018,04,27,10,43,3.20
2018,04,27,10,44,1.60
2018,04,27,10,45,4.80
2018,04,27,10,46,1.60
2018,04,27,10,47,8.10
2018,04,27,10,48,9.60
2018,04,27,10,49,6.40
2018,04,27,10,50,6.40
2018,04,27,10,51,3.20
2018,04,27,10,52,4.80
2018,04,27,10,53,9.60
2018,04,27,10,54,11.30
2018,04,27,10,55,11.30
2018,04,27,10,56,16.10
2018,04,27,10,57,19.30
2018,04,27,10,58,11.30
2018,04,27,10,59,16.10
2018,04,27,11,00,16.10
2018,04,27,11,01,16.10
2018,04,27,11,02,16.10
2018,04,27,11,03,17.70
2018,04,27,11,04,14.50
2018,04,27,11,05,11.30
2018,04,27,11,06,14.50
2018,04,27,11,07,11.30
2018,04,27,11,08,6.40
2018,04,27,11,09,11.30
2018,04,27,11,10,11.30
2018,04,27,11,11,16.10
2018,04,27,11,12,17.70
2018,04,27,11,13,16.10
2018,04,27,11,14,16.10
2018,04,27,11,15,14.50
2018,04,27,11,16,17.70
2018,04,27,11,17,19.30
2018,04,27,11,18,17.70
2018,04,27,11,19,11.30
2018,04,27,11,20,16.10
2018,04,27,11,21,14.50
2018,04,27,11,22,20.90
2018,04,27,11,23,11.30
2018,04,27,11,24,16.10
2018,04,27,11,25,14.50
2018,04,27,11,26,14.50
2018,04,27,11,27,16.10
2018,04,27,11,28,14.50
2018,04,27,11,29,17.70
2018,04,27,11,30,17.70
2018,04,27,11,31,19.30
2018,04,27,11,32,19.30
2018,04,27,11,33,22.50
2018,04,27,11,34,17.70
2018,04,27,11,35,16.10
2018,04,27,11,36,14.50
2018,04,27,11,37,17.70
2018,04,27,11,38,14.50
2018,04,27,11,39,19.30
2018,04,27,11,40,19.30
2018,04,27,11,41,14.50
2018,04,27,11,42,12.90
2018,04,27,11,43,14.50
2018,04,27,11,44,16.10
2018,04,27,11,45,17.70
2018,04,27,11,46,16.10
2018,04,27,11,47,14.50
2018,04,27,11,48,16.10
2018,04,27,11,49,16.10
2018,04,27,11,50,16.10
2018,04,27,11,51,19.30
2018,04,27,11,52,11.30
2018,04,27,11,53,11.30
2018,04,27,11,54,14.50
2018,04,27,11,55,16.10
2018,04,27,11,56,19.30
2018,04,27,11,57,11.30
2018,04,27,11,58,6.40
2018,04,27,11,59,8.10
2018,04,27,12,00,19.30
2018,04,27,12,01,11.30
2018,04,27,12,02,20.90
2018,04,27,12,03,9.60
2018,04,27,12,04,11.30
2018,04,27,12,05,11.30
2018,04,27,12,06,17.70
2018,04,27,12,07,14.50
2018,04,27,12,08,11.30
2018,04,27,12,09,16.10
2018,04,27,12,10,19.30
2018,04,27,12,11,14.50
2018,04,27,12,12,14.50
2018,04,27,12,13,8.10
2018,04,27,12,14,11.30
2018,04,27,12,15,17.70
2018,04,27,12,16,9.60
2018,04,27,12,17,9.60
2018,04,27,12,18,19.30
2018,04,27,12,19,17.70
2018,04,27,12,20,19.30
2018,04,27,12,21,20.90
2018,04,27,12,22,14.50
2018,04,27,12,23,14.50
2018,04,27,12,24,22.50
2018,04,27,12,25,19.30
2018,04,27,12,26,17.70
2018,04,27,12,27,12.90
2018,04,27,12,28,11.30
2018,04,27,12,29,19.30
2018,04,27,12,30,19.30
2018,04,27,12,31,22.50
2018,04,27,12,32,19.30
2018,04,27,12,33,19.30
2018,04,27,12,34,16.10
2018,04,27,12,35,19.30
2018,04,27,12,36,12.90
2018,04,27,12,37,19.30
2018,04,27,12,38,19.30
2018,04,27,12,39,17.70
2018,04,27,12,40,16.10
2018,04,27,12,41,11.30
2018,04,27,12,42,11.30
2018,04,27,12,43,12.90
2018,04,27,12,44,17.70
2018,04,27,12,45,19.30
2018,04,27,12,46,11.30
2018,04,27,12,47,9.60
2018,04,27,12,48,9.60
2018,04,27,12,49,11.30
2018,04,27,12,50,19.30
2018,04,27,12,51,17.70
2018,04,27,12,52,17.70
2018,04,27,12,53,17.70
2018,04,27,12,54,16.10
2018,04,27,12,55,19.30
2018,04,27,12,56,19.30
2018,04,27,12,57,17.70
2018,04,27,12,58,19.30
2018,04,27,12,59,14.50
2018,04,27,13,00,17.70
2018,04,27,13,01,16.10
2018,04,27,13,02,16.10
2018,04,27,13,03,16.10
2018,04,27,13,04,19.30
2018,04,27,13,05,17.70
2018,04,27,13,06,19.30
2018,04,27,13,07,22.50
2018,04,27,13,08,22.50
2018,04,27,13,09,20.90
2018,04,27,13,10,19.30
2018,04,27,13,11,17.70
2018,04,27,13,12,17.70
2018,04,27,13,13,17.70
2018,04,27,13,14,20.90
2018,04,27,13,15,20.90
2018,04,27,13,16,20.90
2018,04,27,13,17,20.90
2018,04,27,13,18,22.50
2018,04,27,13,19,16.10
2018,04,27,13,20,19.30
2018,04,27,13,21,19.30
2018,04,27,13,22,22.50
2018,04,27,13,23,19.30
2018,04,27,13,24,24.20
2018,04,27,13,25,22.50
2018,04,27,13,26,19.30
2018,04,27,13,27,19.30
2018,04,27,13,28,19.30
2018,04,27,13,29,22.50
2018,04,27,13,30,19.30
2018,04,27,13,31,22.50
2018,04,27,13,32,19.30
2018,04,27,13,33,16.10
2018,04,27,13,34,17.70
2018,04,27,13,35,17.70
2018,04,27,13,36,25.70
2018,04,27,13,37,24.20
2018,04,27,13,38,19.30
2018,04,27,13,39,22.50
2018,04,27,13,40,19.30
2018,04,27,13,41,16.10
2018,04,27,13,42,16.10
2018,04,27,13,43,17.70
2018,04,27,13,44,14.50
2018,04,27,13,45,9.60
2018,04,27,13,46,6.40
2018,04,27,13,47,24.20
2018,04,27,13,48,22.50
2018,04,27,13,49,8.10
2018,04,27,13,50,9.60
2018,04,27,13,51,8.10
2018,04,27,13,52,9.60
2018,04,27,13,53,9.60
2018,04,27,13,54,6.40
2018,04,27,13,55,8.10
2018,04,27,13,56,11.30
2018,04,27,13,57,11.30
2018,04,27,13,58,6.40
2018,04,27,13,59,16.10
2018,04,27,14,00,11.30
2018,04,27,14,01,8.10
2018,04,27,14,02,8.10
2018,04,27,14,03,11.30
2018,04,27,14,04,12.90
2018,04,27,14,05,8.10
2018,04,27,14,06,11.30
2018,04,27,14,07,11.30
2018,04,27,14,08,4.80
2018,04,27,14,09,6.40
2018,04,27,14,10,16.10
2018,04,27,14,11,6.40
2018,04,27,14,12,6.40
2018,04,27,14,13,8.10
2018,04,27,14,14,20.90
2018,04,27,14,15,16.10
2018,04,27,14,16,20.90
2018,04,27,14,17,25.70
2018,04,27,14,18,29.00
2018,04,27,14,19,22.50
2018,04,27,14,20,16.10
2018,04,27,14,21,11.30
2018,04,27,14,22,20.90
2018,04,27,14,23,16.10
2018,04,27,14,24,16.10
2018,04,27,14,25,22.50
2018,04,27,14,26,9.60
2018,04,27,14,27,16.10
2018,04,27,14,28,19.30
2018,04,27,14,29,12.90
2018,04,27,14,30,9.60
2018,04,27,14,31,22.50
2018,04,27,14,32,25.70
2018,04,27,14,33,32.20
2018,04,27,14,34,19.30
2018,04,27,14,35,27.40
2018,04,27,14,36,25.70
2018,04,27,14,37,30.60
2018,04,27,14,38,19.30
2018,04,27,14,39,32.20
2018,04,27,14,40,22.50
2018,04,27,14,41,25.70
2018,04,27,14,42,24.20
2018,04,27,14,43,24.20
2018,04,27,14,44,27.40
2018,04,27,14,45,22.50
2018,04,27,14,46,22.50
2018,04,27,14,47,32.20
2018,04,27,14,48,25.70
2018,04,27,14,49,22.50
2018,04,27,14,50,25.70
2018,04,27,14,51,30.60
2018,04,27,14,52,20.90
2018,04,27,14,53,17.70
2018,04,27,14,54,22.50
2018,04,27,14,55,20.90
2018,04,27,14,56,14.50
2018,04,27,14,57,19.30
2018,04,27,14,58,24.20
2018,04,27,14,59,11.30
2018,04,27,15,00,17.70
2018,04,27,15,01,27.40
2018,04,27,15,02,25.70
2018,04,27,15,03,20.90
2018,04,27,15,04,22.50
2018,04,27,15,05,22.50
2018,04,27,15,06,22.50
2018,04,27,15,07,24.20
2018,04,27,15,08,29.00
2018,04,27,15,09,22.50
2018,04,27,15,10,29.00
2018,04,27,15,11,24.20
2018,04,27,15,12,24.20
2018,04,27,15,13,27.40
2018,04,27,15,14,30.60
2018,04,27,15,15,25.70
2018,04,27,15,16,30.60
2018,04,27,15,17,25.70
2018,04,27,15,18,30.60
2018,04,27,15,19,20.90
2018,04,27,15,20,6.40
2018,04,27,15,21,22.50
2018,04,27,15,22,27.40
2018,04,27,15,23,20.90
2018,04,27,15,24,25.70
2018,04,27,15,25,22.50
2018,04,27,15,26,19.30
2018,04,27,15,27,17.70
2018,04,27,15,28,19.30
2018,04,27,15,29,22.50
2018,04,27,15,30,25.70
2018,04,27,15,31,30.60
2018,04,27,15,32,24.20
2018,04,27,15,33,24.20
2018,04,27,15,34,19.30
2018,04,27,15,35,22.50
2018,04,27,15,36,19.30
2018,04,27,15,37,19.30
2018,04,27,15,38,11.30
2018,04,27,15,39,24.20
2018,04,27,15,40,25.70
2018,04,27,15,41,24.20
2018,04,27,15,42,19.30
2018,04,27,15,43,8.10
2018,04,27,15,44,11.30
2018,04,27,15,45,14.50
2018,04,27,15,46,11.30
2018,04,27,15,47,14.50
2018,04,27,15,48,17.70
2018,04,27,15,49,22.50
2018,04,27,15,50,25.70
2018,04,27,15,51,9.60
2018,04,27,15,52,12.90
2018,04,27,15,53,22.50
2018,04,27,15,54,19.30
2018,04,27,15,55,24.20
2018,04,27,15,56,25.70
2018,04,27,15,57,27.40
2018,04,27,15,58,24.20
2018,04,27,15,59,17.70
2018,04,27,16,00,17.70
2018,04,27,16,01,29.00
2018,04,27,16,02,17.70
2018,04,27,16,03,22.50
2018,04,27,16,04,19.30
2018,04,27,16,05,20.90
2018,04,27,16,06,6.40
2018,04,27,16,07,17.70
2018,04,27,16,08,17.70
2018,04,27,16,09,8.10
2018,04,27,16,10,16.10
2018,04,27,16,11,17.70
2018,04,27,16,12,12.90
2018,04,27,16,13,9.60
2018,04,27,16,14,9.60
2018,04,27,16,15,16.10
2018,04,27,16,16,11.30
2018,04,27,16,17,20.90
2018,04,27,16,18,16.10
2018,04,27,16,19,4.80
2018,04,27,16,20,17.70
2018,04,27,16,21,17.70
2018,04,27,16,22,8.10
2018,04,27,16,23,4.80
2018,04,27,16,24,9.60
2018,04,27,16,25,14.50
2018,04,27,16,26,9.60
2018,04,27,16,27,9.60
2018,04,27,16,28,11.30
2018,04,27,16,29,12.90
2018,04,27,16,30,6.40
2018,04,27,16,31,6.40
2018,04,27,16,32,6.40
2018,04,27,16,33,9.60
2018,04,27,16,34,16.10
2018,04,27,16,35,9.60
2018,04,27,16,36,22.50
2018,04,27,16,37,11.30
2018,04,27,16,38,14.50
2018,04,27,16,39,14.50
2018,04,27,16,40,9.60
2018,04,27,16,41,11.30
2018,04,27,16,42,14.50
2018,04,27,16,43,14.50
2018,04,27,16,44,17.70
2018,04,27,16,45,4.80
2018,04,27,16,46,11.30
2018,04,27,16,47,16.10
2018,04,27,16,48,17.70
2018,04,27,16,49,17.70
2018,04,27,16,50,16.10
2018,04,27,16,51,9.60
2018,04,27,16,52,12.90
2018,04,27,16,53,16.10
2018,04,27,16,54,16.10
2018,04,27,16,55,8.10
2018,04,27,16,56,16.10
2018,04,27,16,57,11.30
2018,04,27,16,58,6.40
2018,04,27,16,59,16.10
2018,04,27,17,00,14.50
2018,04,27,17,01,12.90
2018,04,27,17,02,11.30
2018,04,27,17,03,8.10
2018,04,27,17,04,9.60
2018,04,27,17,05,9.60
2018,04,27,17,06,9.60
2018,04,27,17,07,9.60
2018,04,27,17,08,11.30
2018,04,27,17,09,16.10
2018,04,27,17,10,19.30
2018,04,27,17,11,6.40
2018,04,27,17,12,6.40
2018,04,27,17,13,9.60
2018,04,27,17,14,9.60
2018,04,27,17,15,9.60
2018,04,27,17,16,22.50
2018,04,27,17,17,20.90
2018,04,27,17,18,19.30
2018,04,27,17,19,19.30
2018,04,27,17,20,25.70
2018,04,27,17,21,19.30
2018,04,27,17,22,27.40
2018,04,27,17,23,20.90
2018,04,27,17,24,24.20
2018,04,27,17,25,17.70
2018,04,27,17,26,17.70
2018,04,27,17,27,11.30
2018,04,27,17,28,9.60
2018,04,27,17,29,11.30
2018,04,27,17,30,11.30
2018,04,27,17,31,1.60
2018,04,27,17,32,4.80
2018,04,27,17,33,11.30
2018,04,27,17,34,4.80
2018,04,27,17,35,9.60
2018,04,27,17,36,9.60
2018,04,27,17,37,6.40
2018,04,27,17,38,3.20
2018,04,27,17,39,4.80
2018,04,27,17,40,8.10
2018,04,27,17,41,11.30
2018,04,27,17,42,8.10
2018,04,27,17,43,6.40
2018,04,27,17,44,9.60
2018,04,27,17,45,16.10
2018,04,27,17,46,16.10
2018,04,27,17,47,16.10
2018,04,27,17,48,19.30
2018,04,27,17,49,8.10
2018,04,27,17,50,9.60
2018,04,27,17,51,33.80
2018,04,27,17,52,27.40
2018,04,27,17,53,25.70
2018,04,27,17,54,40.20
2018,04,27,17,55,37.00
2018,04,27,17,56,33.80
2018,04,27,17,57,30.60
2018,04,27,17,58,43.50
2018,04,27,17,59,29.00
2018,04,27,18,00,45.10
2018,04,27,18,01,48.30
2018,04,27,18,02,48.30
2018,04,27,18,03,24.20
2018,04,27,18,04,30.60
2018,04,27,18,05,33.80
2018,04,27,18,06,45.10
2018,04,27,18,07,38.60
2018,04,27,18,08,27.40
2018,04,27,18,09,29.00
2018,04,27,18,10,37.00
2018,04,27,18,11,38.60
2018,04,27,18,12,41.80
2018,04,27,18,13,46.70
2018,04,27,18,14,38.60
2018,04,27,18,15,45.10
2018,04,27,18,16,35.40
2018,04,27,18,17,45.10
2018,04,27,18,18,53.10
2018,04,27,18,19,49.90
2018,04,27,18,20,30.60
2018,04,27,18,21,35.40
2018,04,27,18,22,40.20
2018,04,27,18,23,41.80
2018,04,27,18,24,37.00
2018,04,27,18,25,45.10
2018,04,27,18,26,40.20
2018,04,27,18,27,30.60
2018,04,27,18,28,38.60
2018,04,27,18,29,40.20
2018,04,27,18,30,25.70
2018,04,27,18,31,48.30
2018,04,27,18,32,30.60
2018,04,27,18,33,53.10
2018,04,27,18,34,33.80
2018,04,27,18,35,40.20
2018,04,27,18,36,22.50
2018,04,27,18,37,40.20
2018,04,27,18,38,64.40
2018,04,27,18,39,32.20
2018,04,27,18,40,27.40
2018,04,27,18,41,30.60
2018,04,27,18,42,45.10
2018,04,27,18,43,33.80
2018,04,27,18,44,25.70
2018,04,27,18,45,29.00
2018,04,27,18,46,32.20
2018,04,27,18,47,51.50
2018,04,27,18,48,38.60
2018,04,27,18,49,40.20
2018,04,27,18,50,37.00
2018,04,27,18,51,40.20
2018,04,27,18,52,46.70
2018,04,27,18,53,49.90
2018,04,27,18,54,29.00
2018,04,27,18,55,24.20
2018,04,27,18,56,37.00
2018,04,27,18,57,45.10
2018,04,27,18,58,45.10
2018,04,27,18,59,29.00
2018,04,27,19,00,27.40
2018,04,27,19,01,35.40
2018,04,27,19,02,40.20
2018,04,27,19,03,49.90
2018,04,27,19,04,35.40
2018,04,27,19,05,45.10
2018,04,27,19,06,40.20
2018,04,27,19,07,43.50
2018,04,27,19,08,40.20
2018,04,27,19,09,43.50
2018,04,27,19,10,48.30
2018,04,27,19,11,30.60
2018,04,27,19,12,33.80
2018,04,27,19,13,53.10
2018,04,27,19,14,54.70
2018,04,27,19,15,37.00
2018,04,27,19,16,35.40
2018,04,27,19,17,38.60
2018,04,27,19,18,40.20
2018,04,27,19,19,37.00
2018,04,27,19,20,38.60
2018,04,27,19,21,48.30
2018,04,27,19,22,30.60
2018,04,27,19,23,30.60
2018,04,27,19,24,24.20
2018,04,27,19,25,24.20
2018,04,27,19,26,30.60
2018,04,27,19,27,37.00
2018,04,27,19,28,38.60
2018,04,27,19,29,30.60
2018,04,27,19,30,35.40
2018,04,27,19,31,48.30
2018,04,27,19,32,22.50
2018,04,27,19,33,33.80
2018,04,27,19,34,25.70
2018,04,27,19,35,37.00
2018,04,27,19,36,48.30
2018,04,27,19,37,35.40
2018,04,27,19,38,20.90
2018,04,27,19,39,22.50
2018,04,27,19,40,33.80
2018,04,27,19,41,25.70
2018,04,27,19,42,41.80
2018,04,27,19,43,37.00
2018,04,27,19,44,38.60
2018,04,27,19,45,27.40
2018,04,27,19,46,45.10
2018,04,27,19,47,37.00
2018,04,27,19,48,43.50
2018,04,27,19,49,24.20
2018,04,27,19,50,35.40
2018,04,27,19,51,45.10
2018,04,27,19,52,53.10
2018,04,27,19,53,38.60
2018,04,27,19,54,37.00
2018,04,27,19,55,25.70
2018,04,27,19,56,43.50
2018,04,27,19,57,33.80
2018,04,27,19,58,24.20
2018,04,27,19,59,38.60
2018,04,27,20,00,40.20
2018,04,27,20,01,32.20
2018,04,27,20,02,35.40
2018,04,27,20,03,40.20
2018,04,27,20,04,43.50
2018,04,27,20,05,35.40
2018,04,27,20,06,61.20
2018,04,27,20,07,41.80
2018,04,27,20,08,41.80
2018,04,27,20,09,32.20
2018,04,27,20,10,32.20
2018,04,27,20,11,38.60
2018,04,27,20,12,37.00
2018,04,27,20,13,43.50
2018,04,27,20,14,40.20
2018,04,27,20,15,41.80
2018,04,27,20,16,41.80
2018,04,27,20,17,33.80
2018,04,27,20,18,29.00
2018,04,27,20,19,32.20
2018,04,27,20,20,33.80
2018,04,27,20,21,37.00
2018,04,27,20,22,40.20
2018,04,27,20,23,35.40
2018,04,27,20,24,51.50
2018,04,27,20,25,27.40
2018,04,27,20,26,30.60
2018,04,27,20,27,29.00
2018,04,27,20,28,29.00
2018,04,27,20,29,22.50
2018,04,27,20,30,24.20
2018,04,27,20,31,43.50
2018,04,27,20,32,30.60
2018,04,27,20,33,22.50
2018,04,27,20,34,46.70
2018,04,27,20,35,24.20
2018,04,27,20,36,27.40
2018,04,27,20,37,33.80
2018,04,27,20,38,30.60
2018,04,27,20,39,30.60
2018,04,27,20,40,20.90
2018,04,27,20,41,32.20
2018,04,27,20,42,22.50
2018,04,27,20,43,22.50
2018,04,27,20,44,19.30
2018,04,27,20,45,25.70
2018,04,27,20,46,33.80
2018,04,27,20,47,22.50
2018,04,27,20,48,41.80
2018,04,27,20,49,33.80
2018,04,27,20,50,37.00
2018,04,27,20,51,24.20
2018,04,27,20,52,19.30
2018,04,27,20,53,20.90
2018,04,27,20,54,29.00
2018,04,27,20,55,11.30
2018,04,27,20,56,20.90
2018,04,27,20,57,16.10
2018,04,27,20,58,43.50
2018,04,27,20,59,20.90
2018,04,27,21,00,20.90
2018,04,27,21,01,20.90
2018,04,27,21,02,29.00
2018,04,27,21,03,19.30
2018,04,27,21,04,19.30
2018,04,27,21,05,22.50
2018,04,27,21,06,19.30
2018,04,27,21,07,30.60
2018,04,27,21,08,24.20
2018,04,27,21,09,22.50
2018,04,27,21,10,16.10
2018,04,27,21,11,24.20
2018,04,27,21,12,20.90
2018,04,27,21,13,25.70
2018,04,27,21,14,30.60
2018,04,27,21,15,20.90
2018,04,27,21,16,16.10
2018,04,27,21,17,20.90
2018,04,27,21,18,32.20
2018,04,27,21,19,46.70
2018,04,27,21,20,29.00